Date String (YYYY-MM-DD hh:mm:ss) UTC,Instrument flags,absolute air pressure of the measurement (hPa),sample flow rate (lpm),inlet stack bypass flow (lpm),air temperature of the measurement (°C),ambient temperature measured by the external sensor (°C),aerosol sample conditioner tube jacket temperature (°C),OPC LED temperature (°C),internal box temperature (°C),relative humidity of the measurement (%),span deviation,mass concentration of particles derived from Lorenz-Mie calculation of OPC scattering (μg/m³),mass concentration of particles derived from Lorenz-Mie calculation of OPC scattering (μg/m³),mass concentration of particles derived from Lorenz-Mie calculation of OPC scattering (μg/m³)
DateTimeUTC,F1_M11,P_M11,Q1_M11,Q2_M11,T1_M11,T2_M11,T3_M11,T4_M11,T5_M11,U1_M11,ZSPAN_M11,X0_M11,X2_M11,X1_M11
2023-08-03 00:00:00,SystemResetWarning,0833.1,5.01,000.00,030.7,025.0,000.0,038.5,030.7,30.7,0000.0,0005.88,0003.40,0002.83
2023-08-03 00:01:00,SystemResetWarning,0832.8,5.00,000.00,030.5,025.2,000.0,038.5,030.6,31.1,0000.0,0006.12,0003.43,0002.85
2023-08-03 00:02:00,SystemResetWarning,0833.0,5.00,000.00,030.4,025.7,000.0,038.5,030.6,31.4,0000.0,0006.64,0003.42,0002.85
2023-08-03 00:03:00,SystemResetWarning,0832.9,5.00,000.00,030.4,026.2,000.0,038.5,030.8,31.5,0000.0,0006.50,0003.39,0002.85
2023-08-03 00:04:00,SystemResetWarning,0833.0,5.00,000.00,030.4,026.6,000.0,038.5,030.9,31.7,0000.0,0006.35,0003.36,0002.82
2023-08-03 00:05:00,SystemResetWarning,0833.1,4.99,000.00,030.3,027.0,000.0,038.5,030.9,30.6,0000.0,0006.35,0003.38,0002.81
2023-08-03 00:06:00,SystemResetWarning,0833.1,5.00,000.00,030.3,027.3,000.0,038.5,031.0,30.8,0000.0,0006.48,0003.39,0002.81
2023-08-03 00:07:00,SystemResetWarning,0833.1,5.00,000.00,030.3,027.6,000.0,038.5,031.1,32.1,0000.0,0006.52,0003.40,0002.80
2023-08-03 00:08:00,SystemResetWarning,0833.4,5.00,000.00,030.4,027.8,000.0,038.5,031.2,31.5,0000.0,0006.21,0003.42,0002.81
2023-08-03 00:09:00,SystemResetWarning,0833.0,4.99,000.00,030.4,027.0,000.0,038.5,031.1,31.2,0000.0,0006.73,0003.41,0002.81
2023-08-03 00:10:00,SystemResetWarning,0833.0,4.99,000.00,030.3,025.5,000.0,038.3,030.8,30.7,0000.0,0006.85,0003.38,0002.79
2023-08-03 00:11:00,SystemResetWarning,0833.0,5.01,000.00,030.2,024.9,000.0,038.2,030.6,31.0,0000.0,0006.78,0003.37,0002.78
2023-08-03 00:12:00,SystemResetWarning,0833.0,5.01,000.00,030.0,025.1,000.0,038.2,030.5,31.2,0000.0,0006.62,0003.33,0002.76
2023-08-03 00:13:00,SystemResetWarning,0833.0,5.00,000.00,029.9,025.5,000.0,038.2,030.5,30.1,0000.0,0006.31,0003.31,0002.74
2023-08-03 00:14:00,SystemResetWarning,0833.2,4.99,000.00,029.9,026.0,000.0,038.2,030.6,30.5,0000.0,0006.18,0003.32,0002.72
2023-08-03 00:15:00,SystemResetWarning,0833.2,5.00,000.00,029.9,026.5,000.0,038.2,030.7,31.3,0000.0,0006.32,0003.34,0002.70
2023-08-03 00:16:00,SystemResetWarning,0833.4,5.00,000.00,029.9,026.9,000.0,038.2,030.8,32.1,0000.0,0006.21,0003.31,0002.69
2023-08-03 00:17:00,SystemResetWarning,0833.2,5.01,000.00,029.9,027.2,000.0,038.2,030.9,31.2,0000.0,0005.97,0003.26,0002.65
2023-08-03 00:18:00,SystemResetWarning,0833.3,5.00,000.00,029.9,027.5,000.0,038.2,031.0,31.2,0000.0,0005.86,0003.24,0002.62
2023-08-03 00:19:00,SystemResetWarning,0833.2,5.00,000.00,029.9,027.8,000.0,038.2,031.1,31.3,0000.0,0005.79,0003.21,0002.60
2023-08-03 00:20:00,SystemResetWarning,0833.2,4.99,000.00,030.0,027.4,000.0,038.2,031.1,31.7,0000.0,0005.67,0003.19,0002.57
2023-08-03 00:21:00,SystemResetWarning,0833.1,5.01,000.00,029.9,025.9,000.0,038.0,030.8,31.2,0000.0,0005.11,0003.18,0002.54
2023-08-03 00:22:00,SystemResetWarning,0833.0,5.00,000.00,029.8,025.1,000.0,037.9,030.6,31.2,0000.0,0005.16,0003.18,0002.54
2023-08-03 00:23:00,SystemResetWarning,0833.3,5.00,000.00,029.7,025.2,000.0,037.9,030.4,31.3,0000.0,0004.99,0003.15,0002.52
2023-08-03 00:24:00,SystemResetWarning,0833.1,5.01,000.00,029.6,025.5,000.0,037.9,030.4,31.1,0000.0,0004.70,0003.12,0002.51
2023-08-03 00:25:00,SystemResetWarning,0833.2,5.00,000.00,029.6,026.0,000.0,037.9,030.5,31.8,0000.0,0004.64,0003.11,0002.49
2023-08-03 00:26:00,SystemResetWarning,0833.3,4.99,000.00,029.6,026.4,000.0,037.9,030.6,31.8,0000.0,0004.55,0003.07,0002.48
2023-08-03 00:27:00,SystemResetWarning,0833.5,4.99,000.00,029.6,026.8,000.0,037.9,030.7,30.1,0000.0,0004.58,0003.08,0002.47
2023-08-03 00:28:00,SystemResetWarning,0833.2,5.00,000.00,029.6,027.2,000.0,038.0,030.8,29.5,0000.0,0004.64,0003.10,0002.47
2023-08-03 00:29:00,SystemResetWarning,0833.1,5.00,000.00,029.6,027.5,000.0,038.0,030.9,29.8,0000.0,0004.72,0003.11,0002.47
2023-08-03 00:30:00,SystemResetWarning,0833.2,5.01,000.00,029.7,027.7,000.0,038.0,031.0,30.6,0000.0,0004.73,0003.11,0002.46
2023-08-03 00:31:00,SystemResetWarning,0833.0,5.00,000.00,029.7,027.6,000.0,037.9,031.0,32.0,0000.0,0004.51,0003.11,0002.46
2023-08-03 00:32:00,SystemResetWarning,0833.0,4.98,000.00,029.7,026.1,000.0,037.8,030.8,31.9,0000.0,0004.56,0003.13,0002.47
2023-08-03 00:33:00,SystemResetWarning,0833.3,5.02,000.00,029.6,025.1,000.0,037.7,030.5,31.3,0000.0,0004.58,0003.14,0002.47
2023-08-03 00:34:00,SystemResetWarning,0833.4,5.00,000.00,029.5,025.1,000.0,037.7,030.4,31.4,0000.0,0004.90,0003.15,0002.46
2023-08-03 00:35:00,SystemResetWarning,0833.3,5.01,000.00,029.4,025.5,000.0,037.7,030.3,32.9,0000.0,0004.99,0003.16,0002.44
2023-08-03 00:36:00,SystemResetWarning,0833.4,5.00,000.00,029.3,025.9,000.0,037.7,030.4,33.6,0000.0,0005.25,0003.20,0002.45
2023-08-03 00:37:00,SystemResetWarning,0833.2,5.00,000.00,029.3,026.4,000.0,037.7,030.5,34.1,0000.0,0005.36,0003.21,0002.46
2023-08-03 00:38:00,SystemResetWarning,0832.9,5.01,000.00,029.3,026.8,000.0,037.7,030.6,32.5,0000.0,0005.62,0003.24,0002.47
2023-08-03 00:39:00,SystemResetWarning,0832.9,5.00,000.00,029.4,027.1,000.0,037.7,030.7,32.5,0000.0,0005.80,0003.26,0002.48
2023-08-03 00:40:00,SystemResetWarning,0833.0,5.00,000.00,029.4,027.4,000.0,037.7,030.8,31.8,0000.0,0005.73,0003.25,0002.48
2023-08-03 00:41:00,SystemResetWarning,0832.9,5.00,000.00,029.4,027.7,000.0,037.8,030.9,32.3,0000.0,0005.60,0003.23,0002.49
2023-08-03 00:42:00,SystemResetWarning,0833.0,4.98,000.00,029.5,027.1,000.0,037.7,030.8,32.5,0000.0,0005.80,0003.26,0002.51
2023-08-03 00:43:00,SystemResetWarning,0833.0,5.01,000.00,029.4,025.6,000.0,037.6,030.6,32.4,0000.0,0005.72,0003.25,0002.52
2023-08-03 00:44:00,SystemResetWarning,0832.9,5.00,000.00,029.3,025.0,000.0,037.5,030.4,32.4,0000.0,0005.70,0003.25,0002.52
2023-08-03 00:45:00,SystemResetWarning,0832.9,5.01,000.00,029.2,025.1,000.0,037.5,030.2,32.5,0000.0,0005.66,0003.29,0002.55
2023-08-03 00:46:00,SystemResetWarning,0832.9,5.00,000.00,029.1,025.5,000.0,037.5,030.3,32.9,0000.0,0005.76,0003.32,0002.58
2023-08-03 00:47:00,SystemResetWarning,0833.0,5.00,000.00,029.1,026.0,000.0,037.5,030.3,33.2,0000.0,0005.64,0003.30,0002.60
2023-08-03 00:48:00,SystemResetWarning,0833.0,5.00,000.00,029.1,026.4,000.0,037.5,030.5,32.8,0000.0,0005.45,0003.29,0002.61
2023-08-03 00:49:00,SystemResetWarning,0832.9,4.99,000.00,029.2,026.8,000.0,037.5,030.6,33.1,0000.0,0005.20,0003.26,0002.62
2023-08-03 00:50:00,SystemResetWarning,0832.9,5.00,000.00,029.2,027.1,000.0,037.6,030.7,33.0,0000.0,0005.03,0003.25,0002.64
2023-08-03 00:51:00,SystemResetWarning,0833.2,5.00,000.00,029.2,027.4,000.0,037.6,030.7,32.9,0000.0,0005.12,0003.29,0002.65
2023-08-03 00:52:00,SystemResetWarning,0833.3,5.01,000.00,029.3,027.7,000.0,037.6,030.8,33.1,0000.0,0005.12,0003.29,0002.67
2023-08-03 00:53:00,SystemResetWarning,0833.0,5.00,000.00,029.3,027.4,000.0,037.5,030.8,32.3,0000.0,0004.89,0003.26,0002.65
2023-08-03 00:54:00,SystemResetWarning,0832.9,4.99,000.00,029.3,025.8,000.0,037.4,030.6,32.5,0000.0,0004.80,0003.24,0002.66
2023-08-03 00:55:00,SystemResetWarning,0832.9,5.01,000.00,029.2,024.9,000.0,037.3,030.4,33.1,0000.0,0005.22,0003.26,0002.66
2023-08-03 00:56:00,SystemResetWarning,0833.0,5.00,000.00,029.1,025.0,000.0,037.3,030.2,33.1,0000.0,0005.53,0003.29,0002.67
2023-08-03 00:57:00,SystemResetWarning,0833.0,5.02,000.00,029.0,025.3,000.0,037.3,030.2,32.9,0000.0,0005.47,0003.29,0002.67
2023-08-03 00:58:00,SystemResetWarning,0833.2,5.00,000.00,029.0,025.8,000.0,037.4,030.3,33.9,0000.0,0005.36,0003.28,0002.67
2023-08-03 00:59:00,SystemResetWarning,0833.0,5.00,000.00,029.0,026.3,000.0,037.4,030.4,33.4,0000.0,0005.39,0003.28,0002.67
